+ View the NASA Portal
+ Center for Near-Earth Object Studies
IMPORTANT:
The SSD Announcement email list is now available. Major changes are coming in the near future, including possible hostname and/or URL changes. To be notified of such changes, subscribe to this email list.
Please visit
this page
for more details.
Don't show this message again
JPL Small-Body Database Browser
Search:
[
help
]
214933 (2007 VW164)
Classification:
Main-belt Asteroid
SPK-ID:
2214933
[
Ephemeris
|
Orbit Diagram
|
Orbital Elements
|
Mission Design
|
Physical Parameters
|
Discovery Circumstances
|
Close-Approach Data
]
[ show orbit diagram ]
Orbital Elements at Epoch 2458600.5 (2019-Apr-27.0) TDB
Reference:
JPL 12
(heliocentric ecliptic J2000)
Element
Value
Uncertainty (1-sigma)
Units
e
.1906957322452483
5.0758e-08
a
2.380180606655808
1.9467e-08
au
q
1.92629032299364
1.2699e-07
au
i
4.072685949849699
4.754e-06
deg
node
243.5409543461833
0.00010177
deg
peri
337.6714879153154
0.0001037
deg
M
255.1366446042902
2.2826e-05
deg
t
p
2458991.192023513972
(2020-May-21.69202351)
8.7498e-05
TDB
period
1341.260995647905
3.67
1.6455e-05
4.505e-08
d
yr
n
.2684041369786493
3.2928e-09
deg/d
Q
2.834070890317977
2.3179e-08
au
Orbit Determination Parameters
# obs. used (total)
220
data-arc span
7543 days (20.65 yr)
first obs. used
1998-04-21
last obs. used
2018-12-15
planetary ephem.
DE431
SB-pert. ephem.
SB431-N16
condition code
0
norm. resid. RMS
.72114
source
ORB
producer
Otto Matic
solution date
2019-Jul-14 09:59:28
Additional Information
Earth MOID
= .918721 au
Jupiter MOID
= 2.1516 au
T_jup
= 3.511
[ show covariance matrix ]
[
Ephemeris
|
Orbit Diagram
|
Orbital Elements
|
Mission Design
|
Physical Parameters
|
Discovery Circumstances
|
Close-Approach Data
]
Physical Parameter Table
Parameter
Symbol
Value
Units
Sigma
Reference
Notes
absolute magnitude
H
17.1
n/a
MPO418152
214933 (2007 VW164)
Discovered 2007-Nov-05 by Spacewatch at Kitt Peak
Reference:
20090509/Numbers.arc
Last Updated:
2009-05-11
[ show close-approach data ]
Alternate Designations
2007 VW164
= 2005 EK218
[
Ephemeris
|
Orbit Diagram
|
Orbital Elements
|
Mission Design
|
Physical Parameters
|
Discovery Circumstances
|
Close-Approach Data
]
2019-Dec-10 19:39 UT
(server date/time)
Site Manager:
Ryan S. Park
Webmaster
:
Alan B. Chamberlin